Hamilton Island, Australia

11:48 AM AEST on April 25, 2018 (GMT +1000)
Hamilton Island

Weather History for YBHM - February, 2014

Change the Weather History Date:

Thursday, February 20, 2014

  Actual Average Record
Temperature  
Mean Temperature 80 °F -  
Max Temperature 84 °F - - ()
Min Temperature 77 °F - - ()
Cooling Degree Days 16    
Growing Degree Days 30 (Base 50)    
Moisture  
Dew Point 77 °F    
Average Humidity 90    
Maximum Humidity 94    
Minimum Humidity 79    
Precipitation  
Precipitation 0.31 in - - ()
Sea Level Pressure  
Sea Level Pressure 29.72 in    
Wind  
Wind Speed 13 mph ()    
Max Wind Speed 21 mph    
Max Gust Speed 30 mph    
Visibility 5.7 miles    
Events      
T = Trace of Precipitation, MM = Missing Value Source: Averaged Metar Reports

Daily Weather History Graph

Daily Weather History Graph

Search for Another Location

Airport or City:

Astronomy

Feb. 20, 2014 Rise Set
Actual Time 5:57 AM AEST 6:37 PM AEST
Civil Twilight 5:35 AM AEST 7:00 PM AEST
Nautical Twilight 5:08 AM AEST 7:27 PM AEST
Astronomical Twilight 4:41 AM AEST 7:53 PM AEST
Moon 9:53 PM AEST (2/20) 10:04 AM AEST (2/20)
Length of Visible Light 13h 25m
Length of Day
12h 40m
Waning Gibbous, 77% of the Moon is Illuminated
Feb 20
Waning Gibbous
Feb 23
Last Quarter
Mar 1
New
Mar 8
First Quarter
Mar 17
Full

Hourly Weather History & Observations

Time (AEST) Temp. Heat Index Dew Point Humidity Pressure Visibility Wind Dir Wind Speed Gust Speed Precip Events Conditions
12:00 AM 80 °F - 76 °F 84% 29.71 in - ENE 17.3 mph - -   Overcast
12:00 AM 80.6 °F 86.2 °F 75.2 °F 84% 29.71 in 6.2 mi ENE 17.3 mph - N/A   Overcast
12:30 AM 80.6 °F 87.1 °F 77.0 °F 89% 29.71 in 6.2 mi ENE 17.3 mph - N/A   Overcast
1:00 AM 80.6 °F 87.1 °F 77.0 °F 89% 29.71 in 6.2 mi ENE 16.1 mph - N/A   Overcast
1:30 AM 80.6 °F 86.2 °F 75.2 °F 84% 29.68 in 6.2 mi ENE 16.1 mph - N/A   Overcast
2:00 AM 80.6 °F 87.1 °F 77.0 °F 89% 29.68 in - ENE 16.1 mph - N/A   Overcast
2:06 AM 80.6 °F 86.2 °F 75.2 °F 84% 29.68 in 6.2 mi ENE 18.4 mph 29.9 mph N/A   Mostly Cloudy
2:15 AM 78.8 °F - 75.2 °F 89% 29.68 in 3.7 mi NE 19.6 mph - N/A   Overcast
2:26 AM 78.8 °F - 75.2 °F 89% 29.68 in 6.2 mi NE 17.3 mph - N/A   Overcast
2:30 AM 78.8 °F - 75.2 °F 89% 29.68 in 6.2 mi NE 18.4 mph - N/A   Overcast
2:44 AM 78.8 °F - 75.2 °F 89% 29.68 in 6.2 mi ENE 18.4 mph - N/A   Overcast
3:00 AM 79 °F - 76 °F 88% 29.68 in - ENE 12.7 mph - -   Overcast
3:00 AM 78.8 °F - 77.0 °F 94% 29.68 in 6.2 mi ENE 12.7 mph - N/A   Overcast
3:30 AM 78.8 °F - 77.0 °F 94% 29.65 in 6.2 mi ENE 13.8 mph - N/A   Overcast
4:00 AM 78.8 °F - 77.0 °F 94% 29.68 in 6.2 mi ENE 13.8 mph - N/A   Overcast
4:30 AM 80.6 °F 87.1 °F 77.0 °F 89% 29.68 in 6.2 mi ENE 12.7 mph - N/A   Overcast
5:00 AM 78.8 °F - 77.0 °F 94% 29.68 in 5.6 mi ENE 12.7 mph - N/A   Overcast
5:03 AM 80.6 °F 87.1 °F 77.0 °F 89% 29.68 in 3.1 mi ENE 13.8 mph - N/A   Overcast
5:22 AM 80.6 °F 87.1 °F 77.0 °F 89% 29.68 in 6.2 mi NE 17.3 mph - N/A   Overcast
5:30 AM 78.8 °F - 77.0 °F 94% 29.68 in 5.0 mi NE 18.4 mph - N/A   Overcast
5:32 AM 78.8 °F - 77.0 °F 94% 29.68 in 3.7 mi NE 19.6 mph - N/A   Overcast
6:00 AM 78 °F - 76 °F 90% 29.71 in 5 mi North 10.4 mph - -   Overcast
6:00 AM 77.0 °F - 75.2 °F 94% 29.71 in 5.0 mi North 10.4 mph - N/A   Overcast
6:04 AM 77.0 °F - 75.2 °F 94% 29.71 in 4.3 mi North 10.4 mph - N/A   Overcast
6:08 AM 78.8 °F - 75.2 °F 89% 29.71 in 3.7 mi North 10.4 mph - N/A   Overcast
6:13 AM 78.8 °F - 75.2 °F 89% 29.71 in 5.0 mi North 11.5 mph - N/A   Overcast
6:19 AM 78.8 °F - 75.2 °F 89% 29.71 in 6.2 mi North 11.5 mph - N/A   Overcast
6:30 AM 78.8 °F - 75.2 °F 89% 29.71 in 6.2 mi North 6.9 mph - N/A   Overcast
6:43 AM 78.8 °F - 77.0 °F 94% 29.74 in 3.7 mi NNE 8.1 mph - N/A   Overcast
6:57 AM 78.8 °F - 75.2 °F 89% 29.74 in 6.2 mi NNE 8.1 mph - N/A   Overcast
7:00 AM 78.8 °F - 75.2 °F 89% 29.74 in 6.2 mi NNE 9.2 mph - N/A   Overcast
7:30 AM 78.8 °F - 75.2 °F 89% 29.74 in 6.2 mi NE 8.1 mph - N/A   Overcast
8:00 AM 80.6 °F 87.1 °F 77.0 °F 89% 29.74 in 6.2 mi NNE 9.2 mph - N/A   Mostly Cloudy
8:30 AM 80.6 °F 87.1 °F 77.0 °F 89% 29.74 in 6.2 mi NE 9.2 mph - N/A   Scattered Clouds
9:00 AM 81 °F - 77 °F 85% 29.75 in - ENE 6.9 mph - -  
9:00 AM 80.6 °F 87.1 °F 77.0 °F 89% 29.74 in 6.2 mi ENE 6.9 mph - N/A   Mostly Cloudy
9:37 AM 82.4 °F 92.4 °F 78.8 °F 89% 29.74 in 6.2 mi NE 10.4 mph - N/A   Overcast
10:00 AM 82.4 °F 90.9 °F 77.0 °F 84% 29.74 in 6.2 mi NE 10.4 mph - N/A   Overcast
10:30 AM 82.4 °F 90.9 °F 77.0 °F 84% 29.74 in 6.2 mi ENE 6.9 mph - N/A   Mostly Cloudy
10:50 AM 82.4 °F 92.4 °F 78.8 °F 89% 29.74 in 6.2 mi East 4.6 mph - N/A   Mostly Cloudy
11:00 AM 82.4 °F 92.4 °F 78.8 °F 89% 29.74 in 6.2 mi ESE 4.6 mph - N/A   Overcast
11:14 AM 84.2 °F 96.1 °F 78.8 °F 84% 29.74 in 6.2 mi ESE 6.9 mph - N/A   Overcast
11:30 AM 82.4 °F 90.9 °F 77.0 °F 84% 29.74 in 6.2 mi ENE 5.8 mph - N/A   Overcast
12:00 PM 82 °F - 79 °F 87% 29.74 in - West 2.3 mph - -   Overcast
12:00 PM 82.4 °F 92.4 °F 78.8 °F 89% 29.74 in 6.2 mi West 2.3 mph - N/A   Overcast
12:15 PM 82.4 °F 92.4 °F 78.8 °F 89% 29.74 in 3.7 mi NE 4.6 mph - N/A   Overcast
12:30 PM 80.6 °F 88.1 °F 78.8 °F 94% 29.74 in 4.3 mi NE 10.4 mph - N/A   Overcast
12:39 PM 82.4 °F 92.4 °F 78.8 °F 89% 29.71 in 5.6 mi NE 6.9 mph - N/A   Overcast
12:47 PM 82.4 °F 92.4 °F 78.8 °F 89% 29.71 in 6.2 mi East 11.5 mph - N/A   Overcast
1:00 PM 80.6 °F 87.1 °F 77.0 °F 89% 29.71 in 6.2 mi East 12.7 mph - N/A   Overcast
1:30 PM 84.2 °F 96.1 °F 78.8 °F 84% 29.71 in 6.2 mi ENE 15.0 mph - N/A   Scattered Clouds
1:52 PM 80.6 °F 87.1 °F 77.0 °F 89% 29.68 in 6.2 mi East 18.4 mph - N/A   Mostly Cloudy
2:00 PM 80.6 °F 87.1 °F 77.0 °F 89% 29.68 in 6.2 mi East 17.3 mph - N/A   Mostly Cloudy
2:30 PM 82.4 °F 90.9 °F 77.0 °F 84% 29.68 in 6.2 mi NE 10.4 mph - N/A   Overcast
2:37 PM 82.4 °F 90.9 °F 77.0 °F 84% 29.68 in 6.2 mi NE 11.5 mph - N/A   Overcast
3:00 PM 83 °F - 78 °F 79% 29.69 in - East 12.7 mph - -   Overcast
3:00 PM 82.4 °F 90.9 °F 77.0 °F 84% 29.68 in 6.2 mi East 12.7 mph - N/A   Mostly Cloudy
3:04 PM 82.4 °F 90.9 °F 77.0 °F 84% 29.68 in 6.2 mi East 13.8 mph - N/A   Overcast
3:17 PM 80.6 °F 88.1 °F 78.8 °F 94% 29.68 in 3.7 mi East 18.4 mph - N/A   Overcast
3:30 PM 78.8 °F - 77.0 °F 94% 29.68 in - ENE 20.7 mph - N/A   Overcast
4:00 PM 78.8 °F - 77.0 °F 94% 29.68 in - ENE 18.4 mph - N/A   Overcast
4:12 PM 78.8 °F - 77.0 °F 94% 29.68 in - ENE 18.4 mph - N/A   Overcast
4:30 PM 78.8 °F - 77.0 °F 94% 29.68 in 1.7 mi ENE 17.3 mph - N/A   Overcast
5:00 PM 78.8 °F - 77.0 °F 94% 29.68 in 6.2 mi NNE 11.5 mph - N/A   Overcast
5:04 PM 78.8 °F - 77.0 °F 94% 29.68 in 6.2 mi NE 12.7 mph - N/A   Overcast
5:30 PM 78.8 °F - 77.0 °F 94% 29.71 in 6.2 mi NE 12.7 mph - N/A   Overcast
6:00 PM 79 °F - 76 °F 89% 29.71 in - NE 11.5 mph - -   Overcast
6:00 PM 78.8 °F - 77.0 °F 94% 29.71 in 6.2 mi NE 11.5 mph - N/A   Overcast
6:17 PM 78.8 °F - 77.0 °F 94% 29.71 in 6.2 mi ENE 11.5 mph - N/A   Overcast
6:30 PM 78.8 °F - 77.0 °F 94% 29.71 in 6.2 mi NE 8.1 mph - N/A   Overcast
7:00 PM 78.8 °F - 77.0 °F 94% 29.74 in - ENE 11.5 mph - N/A   Mostly Cloudy
7:02 PM 78.8 °F - 77.0 °F 94% 29.74 in - ENE 12.7 mph - N/A   Mostly Cloudy
7:20 PM 78.8 °F - 77.0 °F 94% 29.74 in 6.2 mi NE 11.5 mph - N/A   Overcast
7:30 PM 78.8 °F - 77.0 °F 94% 29.74 in 6.2 mi ENE 9.2 mph - N/A   Overcast
8:00 PM 78.8 °F - 77.0 °F 94% 29.74 in 6.2 mi North 8.1 mph - N/A   Overcast
8:30 PM 78.8 °F - 77.0 °F 94% 29.77 in 6.2 mi ENE 8.1 mph - N/A   Overcast
9:00 PM 79 °F - 76 °F 90% 29.77 in - ENE 15.0 mph - -   Overcast
9:00 PM 78.8 °F - 77.0 °F 94% 29.77 in 6.2 mi ENE 15.0 mph - N/A   Overcast
9:06 PM 78.8 °F - 77.0 °F 94% 29.77 in 3.7 mi ENE 15.0 mph - N/A   Overcast
9:12 PM 78.8 °F - 77.0 °F 94% 29.77 in 4.3 mi ENE 12.7 mph - N/A   Overcast
9:19 PM 78.8 °F - 77.0 °F 94% 29.77 in 6.2 mi ENE 11.5 mph - N/A   Overcast
9:21 PM 78.8 °F - 77.0 °F 94% 29.77 in 6.2 mi East 11.5 mph - N/A   Overcast
9:30 PM 78.8 °F - 77.0 °F 94% 29.77 in 6.2 mi ENE 13.8 mph - N/A   Overcast
10:00 PM 80.6 °F 87.1 °F 77.0 °F 89% 29.77 in 6.2 mi ENE 17.3 mph - N/A   Overcast
10:18 PM 78.8 °F - 77.0 °F 94% 29.77 in 3.7 mi ENE 19.6 mph - N/A   Overcast
10:30 PM 78.8 °F - 77.0 °F 94% 29.77 in 6.2 mi ENE 18.4 mph - N/A   Overcast
10:31 PM 78.8 °F - 77.0 °F 94% 29.77 in 6.2 mi ENE 18.4 mph - N/A   Overcast
11:00 PM 78.8 °F - 77.0 °F 94% 29.77 in 6.2 mi ENE 16.1 mph - N/A   Overcast
11:30 PM 78.8 °F - 77.0 °F 94% 29.77 in 6.2 mi ENE 20.7 mph - N/A   Overcast
11:46 PM 78.8 °F - 77.0 °F 94% 29.77 in 6.2 mi ENE 17.3 mph - N/A   Overcast
11:55 PM 80.6 °F 87.1 °F 77.0 °F 89% 29.77 in 6.2 mi ENE 16.1 mph - N/A   Overcast
11:57 PM 78.8 °F - 77.0 °F 94% 29.77 in 6.2 mi ENE 17.3 mph 28.8 mph N/A   Overcast